Meriden, CT

4:21 PM EDT on April 24, 2017 (GMT -0400)
Meriden Markham Municipal

Weather History for KMMK - February, 2013

Change the Weather History Date:

Wednesday, February 6, 2013

  Actual Average (KOXC) Record (KOXC)
Temperature  
Mean Temperature 32 °F -  
Max Temperature 37 °F 34 °F 51 °F (2008)
Min Temperature 26 °F 19 °F 3 °F (2015)
Degree Days  
Heating Degree Days 34    
Moisture  
Dew Point 17 °F    
Average Humidity 60    
Maximum Humidity 89    
Minimum Humidity 27    
Precipitation  
Precipitation 0.00 in - - ()
Sea Level Pressure  
Sea Level Pressure 30.08 in    
Wind  
Wind Speed 3 mph (NW)    
Max Wind Speed 13 mph    
Max Gust Speed 21 mph    
Visibility 8 miles    
Events Snow    
Averages and records for this station are not official NWS values.
T = Trace of Precipitation, MM = Missing Value Source: NWS Daily Summary

Daily Weather History Graph

Daily Weather History Graph

Search for Another Location

Airport or City:

Trip Planner

Search our weather history database for the weather conditions in past years. The results will help you decide how hot, cold, wet, or windy it might be!

Date:

Astronomy

Feb. 06, 2013 Rise Set
Actual Time 6:57 AM EST 5:13 PM EST
Civil Twilight 6:28 AM EST 5:42 PM EST
Nautical Twilight 5:55 AM EST 6:15 PM EST
Astronomical Twilight 5:23 AM EST 6:48 PM EST
Moon 3:39 AM EST (2/6) 1:27 PM EST (2/6)
Length of Visible Light 11h 14m
Length of Day
10h 16m
Waning Crescent, 17% of the Moon is Illuminated
Feb 6
Waning Crescent
Feb 10
New
Feb 17
First Quarter
Feb 25
Full
Mar 4
Last Quarter

Hourly Weather History & Observations

Time (EST) Temp. Windchill Dew Point Humidity Pressure Visibility Wind Dir Wind Speed Gust Speed Precip Events Conditions
12:53 AM 27.0 °F - 21.9 °F 81% 29.94 in 6.0 mi Calm Calm - N/A   Haze
1:53 AM 27.0 °F - 21.9 °F 81% 29.94 in 6.0 mi Calm Calm - 0.00 in Snow Light Snow
2:53 AM 27.0 °F 23.0 °F 23.0 °F 85% 29.93 in 8.0 mi NNW 3.5 mph - 0.00 in   Overcast
3:23 AM 26.6 °F - 23.0 °F 86% 29.92 in 5.0 mi Calm Calm - 0.00 in Snow Light Snow
3:50 AM 26.6 °F - 23.0 °F 86% 29.93 in 5.0 mi Calm Calm - 0.00 in Snow Light Snow
3:53 AM 27.0 °F - 23.0 °F 85% 29.94 in 5.0 mi Calm Calm - 0.00 in   Overcast
4:53 AM 27.0 °F - 24.1 °F 89% 29.95 in 7.0 mi Calm Calm - N/A   Overcast
5:53 AM 27.0 °F - 24.1 °F 89% 29.97 in 6.0 mi Calm Calm - N/A   Overcast
6:53 AM 27.0 °F - 24.1 °F 89% 29.99 in 6.0 mi Calm Calm - N/A   Overcast
7:53 AM 28.0 °F - 24.1 °F 85% 30.02 in 6.0 mi Calm Calm - N/A   Scattered Clouds
8:53 AM 32.0 °F - 24.1 °F 73% 30.04 in 7.0 mi Calm Calm - N/A   Overcast
9:53 AM 33.1 °F 30.0 °F 24.1 °F 70% 30.04 in 9.0 mi WNW 3.5 mph - N/A   Clear
10:53 AM 36.0 °F 28.5 °F 23.0 °F 59% 30.06 in 10.0 mi WNW 10.4 mph 17.3 mph 0.00 in   Partly Cloudy
11:53 AM 37.9 °F 30.0 °F 21.0 °F 51% 30.04 in 10.0 mi West 12.7 mph 20.7 mph 0.00 in   Scattered Clouds
12:53 PM 37.9 °F 32.1 °F 18.0 °F 45% 30.05 in 10.0 mi West 8.1 mph 19.6 mph N/A   Mostly Cloudy
1:53 PM 37.0 °F 31.0 °F 17.1 °F 44% 30.06 in 10.0 mi WNW 8.1 mph - N/A   Overcast
2:53 PM 37.9 °F 30.9 °F 18.0 °F 45% 30.08 in 10.0 mi NW 10.4 mph 18.4 mph N/A   Overcast
3:53 PM 36.0 °F 30.3 °F 18.0 °F 48% 30.11 in 10.0 mi West 6.9 mph - N/A   Scattered Clouds
4:53 PM 37.0 °F 31.6 °F 16.0 °F 42% 30.13 in 10.0 mi NW 6.9 mph - N/A   Clear
5:53 PM 35.1 °F 27.9 °F 14.0 °F 42% 30.18 in 10.0 mi NNW 9.2 mph - N/A   Clear
6:53 PM 33.1 °F 27.7 °F 10.9 °F 40% 30.22 in 10.0 mi NW 5.8 mph - N/A   Clear
7:53 PM 30.9 °F 24.3 °F 9.0 °F 40% 30.26 in 10.0 mi NNW 6.9 mph - N/A   Clear
8:53 PM 30.0 °F 24.1 °F 3.0 °F 32% 30.30 in 10.0 mi NNW 5.8 mph - N/A   Clear
9:53 PM 28.9 °F 21.9 °F -0.9 °F 28% 30.32 in 10.0 mi NW 6.9 mph - N/A   Clear
10:53 PM 28.0 °F 18.6 °F -2.0 °F 27% 30.34 in 10.0 mi NW 10.4 mph - N/A   Clear
11:53 PM 26.1 °F 17.6 °F -0.9 °F 31% 30.35 in 10.0 mi NNW 8.1 mph - N/A   Clear